1342742432238,3.48444
1342742492238,3.49577
1342742552238,3.48186
1342742612238,3.45684
1342742672238,3.46204
1342742732238,3.47858
1342742792238,3.50023
1342742852238,3.48905
1342742912238,3.47275
1342742972238,3.44723
1342743032238,3.47987
1342743092238,3.45780
1342743152238,3.43953
1342743212238,3.45633
1342743272238,3.44161
1342743332238,3.48733
1342743392238,3.46694
1342743452238,3.45073
1342743512238,3.49781
1342743572238,3.47575
1342743632238,3.50336
1342743692238,3.47718
1342743752238,3.46256
1342743812238,3.48578
1342743872238,3.47452
1342743932238,3.46675
1342743992238,3.52028
1342744052238,3.48168
1342744112238,3.50959
1342744172238,3.47070
1342744232238,3.46669
1342744292238,3.47560
1342744352238,3.46022
1342744412238,3.46845
1342744472238,3.44621
1342744532238,3.47737
1342744592238,3.47842
1342744652238,3.45448
1342744712238,3.45748
1342744772238,3.43386
1342744832238,3.48261
1342744892238,3.44842
1342744952238,3.47103
1342745012238,3.46581
1342745072238,3.44591
1342745132238,3.47096
1342745192238,3.50174
1342745252238,3.49248
1342745312238,3.45835
1342745372238,3.47270
1342745432238,3.45922
1342745492238,3.47157
1342745552238,3.48883
1342745612238,3.46442
1342745672238,3.46638
1342745732238,3.46141
1342745792238,3.49495
1342745852238,3.46533
1342745912238,3.46505
1342745972238,3.47846
1342746032248,3.47569
1342746092248,3.46994
1342746152248,3.45025
1342746212248,3.45116
1342746272248,3.46920
1342746332248,3.45067
1342746392248,3.44020
1342746452248,3.47576
1342746512248,3.43625
1342746572248,3.44302
1342746632248,3.46099
1342746692248,3.46803
1342746752248,3.44414
1342746812248,3.47772
1342746872248,3.48985
1342746932248,3.46488
1342746992248,3.47583
1342747052248,3.45562
1342747112248,3.45016
1342747172248,3.45433
1342747232248,3.46902
1342747292248,3.45962
1342747352248,3.45089
1342747412248,3.44017
1342747472248,3.44305
1342747532248,3.44775
1342747592248,3.46890
1342747652248,3.47592
1342747712248,3.49188
1342747772248,3.47988
1342747832248,3.49275
1342747892248,3.48492
1342747952248,3.47702
1342748012248,3.49257
1342748072248,3.46440
1342748132248,3.48458
1342748192248,3.46154
1342748252248,3.44528
1342748312248,3.48744
1342748372248,3.45033
1342748432248,3.47293
1342748492248,3.46683
1342748552248,3.44782
1342748612248,3.46197
1342748672248,3.47243
1342748732248,3.45796
1342748792248,3.46256
1342748852248,3.51974
1342748912248,3.46975
1342748972248,3.48529
1342749032248,3.45841
1342749092248,3.47334
1342749152248,3.44994
1342749212248,3.48616
1342749272248,3.48945
1342749332248,3.47773
1342749392248,3.46768
1342749452248,3.44533
1342749512248,3.47090
1342749572248,3.45740
1342749632257,3.47214
1342749692257,3.47737
1342749752257,3.46145
1342749812257,3.47720
1342749872257,3.48176
1342749932257,3.46794
1342749992257,3.48712
1342750052257,3.45954
1342750112257,3.48236
1342750172257,3.48054
1342750232257,3.48639
1342750292257,3.44639
1342750352257,3.45572
1342750412257,3.46137
1342750472257,3.43829
1342750532257,3.47011
1342750592257,3.44552
1342750652257,3.46161
1342750712257,3.45921
1342750772257,3.46261
1342750832257,3.44186
1342750892257,3.46825
1342750952257,3.47514
1342751012257,3.45839
1342751072257,3.44060
1342751132257,3.46451
1342751192257,3.46349
1342751252257,3.43596
1342751312257,3.46011
1342751372257,3.46292
1342751432257,3.44154
1342751492257,3.44888
1342751552257,3.43716
1342751612257,3.47703
1342751672257,3.45433
1342751732257,3.43441
1342751792257,3.45453
1342751852257,3.44274
1342751912257,3.43775
1342751972257,3.42630
1342752032257,3.45208
1342752092257,3.45821
1342752152257,3.45846
1342752212257,3.46361
1342752272257,3.46354
1342752332257,3.48460
1342752392257,3.47882
1342752452257,3.44309
1342752512257,3.44097
1342752572257,3.47474
1342752632257,3.42672
1342752692257,3.44845
1342752752257,3.45085
1342752812257,3.42500
1342752872257,3.44453
1342752932257,3.45932
1342752992257,3.50793
1342753052257,3.44188
1342753112257,3.48128
1342753172257,3.48446
1342753232267,3.47846
1342753292267,3.46461
1342753352267,3.49632
1342753412267,3.47852
1342753472267,3.46730
1342753532267,3.49471
1342753592267,3.46887
1342753652267,3.49079
1342753712267,3.51748
1342753772267,3.47836
1342753832267,3.43337
1342753892267,3.47992
1342753952267,3.47809
1342754012267,3.47469
1342754072267,3.48603
1342754132267,3.46456
1342754192267,3.48771
1342754252267,3.49329
1342754312267,3.47497
1342754372267,3.45970
1342754432267,3.50944
1342754492267,3.47126
1342754552267,3.49186
1342754612267,3.48865
1342754672267,3.45914
1342754732267,3.49769
1342754792267,3.45966
1342754852267,3.47092
1342754912267,3.48530
1342754972267,3.49592
1342755032267,3.47162
1342755092267,3.45985
1342755152267,3.50689
1342755212267,3.47719
1342755272267,3.49613
1342755332267,3.45335
1342755392267,3.47568
1342755452267,3.49217
1342755512267,3.47894
1342755572267,3.45153
1342755632267,3.46161
1342755692267,3.46476
1342755752267,3.53397
1342755812267,3.47387
1342755872267,3.46829
1342755932267,3.42113
1342755992267,3.45553
1342756052267,3.45011
1342756112267,3.45648
1342756172267,3.44917
1342756232267,3.45767
1342756292267,3.45725
1342756352267,3.48349
1342756412267,3.49067
1342756472267,3.46931
1342756532267,3.47773
1342756592267,3.44542
1342756652267,3.41909
1342756712267,3.43544
1342756772267,3.47143
1342756832276,3.44221
1342756892276,3.44217
1342756952276,3.44772
1342757012276,3.45248
1342757072276,3.44986
1342757132276,3.43395
1342757192276,3.44616
1342757252276,3.44550
1342757312276,3.48347
1342757372276,3.45701
1342757432276,3.43130
1342757492276,3.43858
1342757552276,3.45079
1342757612276,3.46625
1342757672276,3.43366
1342757732276,3.45530
1342757792276,3.44610
1342757852276,3.44020
1342757912276,3.46660
1342757972276,3.42700
1342758032276,3.47149
1342758092276,3.47145
1342758152276,3.44794
1342758212276,3.45445
1342758272276,3.46635
1342758332276,3.43101
1342758392276,3.44719
1342758452276,3.44444
1342758512276,3.44875
1342758572276,3.44131
1342758632276,3.44592
1342758692276,3.45396
1342758752276,3.47215
1342758812276,3.40393
1342758872276,3.45500
1342758932276,3.44092
1342758992276,3.43990
1342759052276,3.46406
1342759112276,3.43614
1342759172276,3.44034
1342759232276,3.47552
1342759292276,3.45049
1342759352276,3.44291
1342759412276,3.45207
1342759472276,3.45144
1342759532276,3.46044
1342759592276,3.44063
1342759652276,3.47346
1342759712276,3.43786
1342759772276,3.46136
1342759832276,3.44672
1342759892276,3.43941
1342759952276,3.43785
1342760012276,3.43575
1342760072276,3.46341
1342760132276,3.44820
1342760192276,3.44052
1342760252276,3.44969
1342760312276,3.45705
1342760372276,3.45902
1342760432285,3.44696
1342760492285,3.44606
1342760552285,3.44484
1342760612285,3.44162
1342760672285,3.44285
1342760732285,3.42000
1342760792285,3.45034
1342760852285,3.43593
1342760912285,3.45971
1342760972285,3.43968
1342761032285,3.42589
1342761092285,3.43357
1342761152285,3.43966
1342761212285,3.40280
1342761272285,3.44347
1342761332285,3.43943
1342761392285,3.42257
1342761452285,3.43839
1342761512285,3.45451
1342761572285,3.46417
1342761632285,3.47345
1342761692285,3.45541
1342761752285,3.47404
1342761812285,3.46605
1342761872285,3.42845
1342761932285,3.44327
1342761992285,3.43348
1342762052285,3.41602
1342762112285,3.42304
1342762172285,3.42185
1342762232285,3.42947
1342762292285,3.47514
1342762352285,3.43285
1342762412285,3.41388
1342762472285,3.42753
1342762532285,3.42327
1342762592285,3.41785
1342762652285,3.43948
1342762712285,3.41651
1342762772285,3.42352
1342762832285,3.44598
1342762892285,3.39592
1342762952285,3.39038
1342763012285,3.41624
1342763072285,3.39220
1342763132285,3.41778
1342763192285,3.44250
1342763252285,3.41376
1342763312285,3.41989
1342763372285,3.39705
1342763432285,3.42679
1342763492285,3.43128
1342763552285,3.40541
1342763612285,3.45993
1342763672285,3.39358
1342763732285,3.42342
1342763792285,3.39763
1342763852285,3.44376
1342763912285,3.40110
1342763972285,3.43372
1342764032294,3.41487
1342764092294,3.43858
1342764152294,3.43939
1342764212294,3.41285
1342764272295,3.44189
1342764332294,3.42601
1342764392294,3.42095
1342764452294,3.40800
1342764512294,3.40731
1342764572294,3.44528
1342764632295,3.39923
1342764692295,3.41339
1342764752295,3.39021
1342764812295,3.40797
1342764872295,3.41692
1342764932295,3.43315
1342764992295,3.39775
1342765052294,3.40439
1342765112294,3.41458
1342765172294,3.41091
1342765232294,3.41751
1342765292294,3.40673
1342765352294,3.40208
1342765412294,3.41966
1342765472294,3.40979
1342765532294,3.41541
1342765592294,3.42342
1342765652295,3.53069
1342765712294,3.43565
1342765772294,3.39573
1342765832294,3.38573
1342765892294,3.41292
1342765952295,3.35654
1342766012295,3.45603
1342766072295,3.45570
1342766132295,3.40742
1342766192295,3.42054
1342766252295,3.40140
1342766312295,3.41846
1342766372294,3.39662
1342766432294,3.40327
1342766492294,3.39103
1342766552294,3.38347
1342766612294,3.39519
1342766672294,3.40457
1342766732294,3.37968
1342766792294,3.39977
1342766852294,3.37051
1342766912294,3.42363
1342766972295,3.39800
1342767032294,3.38738
1342767092294,3.43366
1342767152294,3.38781
1342767212294,3.38651
1342767272294,3.36519
1342767332295,3.38590
1342767392295,3.38160
1342767452295,3.42469
1342767512295,3.41143
1342767572295,3.37208
1342767632304,3.42125
1342767692304,3.38336
1342767752304,3.39115
1342767812304,3.39987
1342767872304,3.38670
1342767932304,3.38932
1342767992304,3.39499
1342768052304,3.39237
1342768112304,3.36870
1342768172304,3.41698
1342768232304,3.41827
1342768292304,3.39419
1342768352304,3.39721
1342768412304,3.39053
1342768472304,3.39886
1342768532304,3.41088
1342768592304,3.39446
1342768652304,3.37686
1342768712304,3.36971
1342768772304,3.35962
1342768832304,3.42325
1342768892304,3.39428
1342768952304,3.41690
1342769012304,3.39252
1342769072304,3.35993
1342769132304,3.40541
1342769192304,3.40541
1342769252304,3.39687
1342769312304,3.40354
1342769372304,3.36022
1342769432304,3.41660
1342769492304,3.38009
1342769552304,3.40128
1342769612304,3.41934
1342769672304,3.39477
1342769732304,3.39449
1342769792304,3.41260
1342769852304,3.40482
1342769912304,3.42574
1342769972304,3.37719
1342770032304,3.39533
1342770092304,3.39559
1342770152304,3.42058
1342770212304,3.40100
1342770272304,3.41706
1342770332304,3.42295
1342770392304,3.38727
1342770452304,3.39246
1342770512304,3.42354
1342770572304,3.40257
1342770632304,3.41895
1342770692304,3.39250
1342770752304,3.41412
1342770812304,3.41958
1342770872304,3.42398
1342770932304,3.40073
1342770992304,3.40038
1342771052304,3.43227
1342771112304,3.37063
1342771172304,3.39452
1342771232313,3.40840
1342771292313,3.39854
1342771352313,3.41374
1342771412313,3.38727
1342771472313,3.38789
1342771532313,3.39980
1342771592313,3.40937
1342771652313,3.41000
1342771712313,3.37462
1342771772313,3.40749
1342771832313,3.42383
1342771892313,3.42914
1342771952313,3.36476
1342772012313,3.37707
1342772072313,3.41806
1342772132313,3.38586
1342772192313,3.40666
1342772252313,3.39141
1342772312313,3.41117
1342772372313,3.39898
1342772432313,3.36107
1342772492313,3.41297
1342772552313,3.37989
1342772612313,3.39643
1342772672313,3.39834
1342772732313,3.42815
1342772792313,3.41224
1342772852313,3.41115
1342772912313,3.43884
1342772972313,3.41081
1342773032313,3.40013
1342773092313,3.44235
1342773152313,3.41269
1342773212313,3.41481
1342773272313,3.42926
1342773332313,3.41332
1342773392313,3.38897
1342773452313,3.38536
1342773512313,3.36212
1342773572313,3.39834
1342773632313,3.41264
1342773692313,3.39503
1342773752313,3.39017
1342773812313,3.37184
1342773872313,3.40005
1342773932313,3.37340
1342773992313,3.36556
1342774052313,3.40534
1342774112313,3.38765
1342774172313,3.37583
1342774232313,3.39956
1342774292313,3.37210
1342774352313,3.39426
1342774412313,3.42261
1342774472313,3.34725
1342774532313,3.37604
1342774592313,3.38468
1342774652313,3.38083
1342774712313,3.39429
1342774772313,3.39756
1342774832322,3.40116
1342774892322,3.37085
1342774952322,3.36832
1342775012322,3.37468
1342775072322,3.37218
1342775132322,3.39060
1342775192322,3.36675
1342775252322,3.36606
1342775312322,3.36901
1342775372322,3.38831
1342775432322,3.40191
1342775492322,3.39077
1342775552322,3.38660
1342775612322,3.37508
1342775672322,3.36035
1342775732322,3.38118
1342775792322,3.36337
1342775852322,3.38380
1342775912322,3.35909
1342775972322,3.37402
1342776032322,3.36475
1342776092322,3.36748
1342776152322,3.38205
1342776212322,3.39333
1342776272322,3.36156
1342776332322,3.37958
1342776392322,3.37071
1342776452322,3.35612
1342776512322,3.35901
1342776572322,3.37321
1342776632322,3.39525
1342776692322,3.38504
1342776752322,3.37929
1342776812322,3.36249
1342776872322,3.36508
1342776932322,3.38646
1342776992322,3.35455
1342777052322,3.40693
1342777112322,3.36943
1342777172322,3.34533
1342777232322,3.39899
1342777292322,3.37045
1342777352322,3.34271
1342777412322,3.35340
1342777472322,3.39679
1342777532322,3.37216
1342777592322,3.35560
1342777652322,3.37205
1342777712322,3.38561
1342777772322,3.38150
1342777832322,3.42275
1342777892322,3.43494
1342777952322,3.40811
1342778012322,3.38549
1342778072322,3.41069
1342778132322,3.39308
1342778192322,3.42393
1342778252322,3.35663
1342778312322,3.38375
1342778372322,3.38352
1342778432331,3.38821
1342778492331,3.41874
1342778552331,3.37622
1342778612331,3.37481
1342778672331,3.39967
1342778732331,3.35757
1342778792331,3.39301
1342778852331,3.37353
1342778912331,3.38030
1342778972331,3.41494
1342779032331,3.38745
1342779092331,3.35407
1342779152331,3.41343
1342779212331,3.39725
1342779272331,3.38334
1342779332331,3.39430
1342779392331,3.37764
1342779452331,3.39176
1342779512331,3.39259
1342779572331,3.36498
1342779632331,3.36621
1342779692331,3.38983
1342779752331,3.40907
1342779812331,3.40015
1342779872331,3.39179
1342779932331,3.36840
1342779992331,3.36702
1342780052331,3.39116
1342780112331,3.38823
1342780172331,3.38479
1342780232331,3.39552
1342780292331,3.34639
1342780352331,3.38020
1342780412331,3.40198
1342780472331,3.37611
1342780532331,3.37185
1342780592331,3.42521
1342780652331,3.39581
1342780712331,3.39895
1342780772331,3.40708
1342780832331,3.41495
1342780892331,3.41242
1342780952331,3.36846
1342781012331,3.38371
1342781072331,3.41009
1342781132331,3.39073
1342781192331,3.40837
1342781252331,3.40019
1342781312331,3.35513
1342781372331,3.36393
1342781432331,3.40003
1342781492331,3.40793
1342781552331,3.41496
1342781612331,3.43394
1342781672331,3.37973
1342781732331,3.40800
1342781792331,3.44330
1342781852331,3.43433
1342781912331,3.37448
1342781972331,3.38893
1342782032340,3.39449
1342782092340,3.38142
1342782152340,3.37915
1342782212340,3.42633
1342782272340,3.40823
1342782332340,3.41386
1342782392340,3.43062
1342782452340,3.40950
1342782512340,3.37083
1342782572340,3.43849
1342782632340,3.42176
1342782692340,3.41518
1342782752340,3.42745
1342782812340,3.41343
1342782872340,3.42662
1342782932340,3.43256
1342782992340,3.42093
1342783052340,3.41702
1342783112340,3.42200
1342783172340,3.40510
1342783232340,3.43837
1342783292340,3.37312
1342783352340,3.38718
1342783412340,3.42334
1342783472340,3.39577
1342783532340,3.40577
1342783592340,3.42118
1342783652340,3.40014
1342783712340,3.38381
1342783772340,3.41764
1342783832340,3.38899
1342783892340,3.37748
1342783952340,3.40087
1342784012340,3.41658
1342784072340,3.44468
1342784132340,3.40610
1342784192340,3.45260
1342784252340,3.42232
1342784312340,3.48915
1342784372340,3.42501
1342784432340,3.41963
1342784492340,3.40712
1342784552340,3.44881
1342784612340,3.38143
1342784672340,3.42669
1342784732340,3.39933
1342784792340,3.42032
1342784852340,3.43465
1342784912340,3.42204
1342784972340,3.41535
1342785032340,3.43133
1342785092340,3.42680
1342785152340,3.42351
1342785212340,3.40859
1342785272340,3.40157
1342785332340,3.45244
1342785392340,3.43126
1342785452340,3.42082
1342785512340,3.43835
1342785572340,3.41380
1342785632335,3.41692
1342785692335,3.44954
1342785752335,3.39011
1342785812335,3.42867
1342785872335,3.39745
1342785932335,3.39645
1342785992335,3.40325
1342786052335,3.40624
1342786112335,3.37769
1342786172335,3.45770
1342786232335,3.42429
1342786292335,3.40841
1342786352335,3.42236
1342786412335,3.40515
1342786472335,3.41371
1342786532335,3.46023
1342786592335,3.41678
1342786652335,3.37647
1342786712335,3.44493
1342786772335,3.42545
1342786832335,3.40540
1342786892335,3.42293
1342786952335,3.42375
1342787012335,3.40049
1342787072335,3.40928
1342787132335,3.44355
1342787192335,3.47820
1342787252335,3.42423
1342787312335,3.42997
1342787372335,3.42916
1342787432335,3.43680
1342787492335,3.41465
1342787552335,3.40410
1342787612335,3.42531
1342787672335,3.43344
1342787732335,3.39883
1342787792335,3.40747
1342787852335,3.42211
1342787912335,3.41602
1342787972335,3.42368
1342788032335,3.42517
1342788092335,3.43934
1342788152335,3.43645
1342788212335,3.40790
1342788272335,3.38166
1342788332335,3.42203
1342788392335,3.42690
1342788452335,3.42241
1342788512335,3.40286
1342788572335,3.42313
1342788632335,3.41584
1342788692335,3.41961
1342788752335,3.40210
1342788812335,3.41845
1342788872335,3.42922
1342788932335,3.40624
1342788992335,3.43473
1342789052335,3.40589
1342789112335,3.41184
1342789172335,3.41691
1342789232344,3.41985
1342789292344,3.41246
1342789352344,3.41192
1342789412344,3.41933
1342789472344,3.40787
1342789532344,3.41964
1342789592344,3.38367
1342789652344,3.37139
1342789712344,3.41626
1342789772344,3.40784
1342789832344,3.40334
1342789892344,3.39284
1342789952344,3.40286
1342790012344,3.41850
1342790072344,3.43357
1342790132344,3.39203
1342790192344,3.45415
1342790252344,3.41607
1342790312344,3.49727
1342790372344,3.39616
1342790432344,3.39839
1342790492344,3.41521
1342790552344,3.39187
1342790612344,3.38694
1342790672344,3.37596
1342790732344,3.40364
1342790792344,3.40539
1342790852344,3.41146
1342790912344,3.40776
1342790972344,3.39917
1342791032344,3.39653
1342791092344,3.36300
1342791152344,3.42368
1342791212344,3.40955
1342791272344,3.45290
1342791332344,3.38555
1342791392344,3.40538
1342791452344,3.41257
1342791512344,3.38483
1342791572344,3.39888
1342791632344,3.40059
1342791692344,3.38395
1342791752344,3.39826
1342791812344,3.36133
1342791872344,3.40411
1342791932344,3.40453
1342791992344,3.39887
1342792052344,3.37475
1342792112344,3.38184
1342792172344,3.38011
1342792232344,3.38640
1342792292344,3.36725
1342792352344,3.38362
1342792412344,3.40733
1342792472344,3.37695
1342792532344,3.39347
1342792592344,3.40668
1342792652344,3.39594
1342792712344,3.37637
1342792772344,3.40068
1342792832354,3.37065
1342792892354,3.37110
1342792952354,3.38790
1342793012354,3.36467
1342793072354,3.38902
1342793132354,3.40857
1342793192354,3.36792
1342793252354,3.43663
1342793312354,3.39417
1342793372354,3.35545
1342793432354,3.38985
1342793492354,3.38121
1342793552354,3.39276
1342793612354,3.40698
1342793672354,3.35890
1342793732354,3.37930
1342793792354,3.34735
1342793852354,3.39013
1342793912354,3.40751
1342793972354,3.39552
1342794032354,3.37524
1342794092354,3.40327
1342794152354,3.40948
1342794212354,3.38369
1342794272354,3.38551
1342794332354,3.40067
1342794392354,3.37700
1342794452354,3.39735
1342794512354,3.54189
1342794572354,3.40268
1342794632354,3.42832
1342794692354,3.39095
1342794752354,3.40447
1342794812354,3.37905
1342794872354,3.40807
1342794932354,3.39976
1342794992354,3.38664
1342795052354,3.36961
1342795112354,3.36466
1342795172354,3.39522
1342795232354,3.39036
1342795292354,3.41053
1342795352354,3.39406
1342795412354,3.39202
1342795472354,3.37709
1342795532354,3.40108
1342795592354,3.37951
1342795652354,3.40941
1342795712354,3.38692
1342795772354,3.40517
1342795832354,3.38810
1342795892354,3.36026
1342795952354,3.38520
1342796012354,3.38492
1342796072354,3.39315
1342796132354,3.39321
1342796192354,3.40178
1342796252354,3.37298
1342796312354,3.37507
1342796372354,3.41653
1342796432363,3.40230
1342796492363,3.39932
1342796552363,3.41428
1342796612363,3.42498
1342796672363,3.41857
1342796732363,3.39515
1342796792363,3.39146
1342796852363,3.39997
1342796912363,3.39684
1342796972363,3.38447
1342797032363,3.42602
1342797092363,3.41591
1342797152363,3.41348
1342797212363,3.39836
1342797272363,3.41982
1342797332363,3.38525
1342797392363,3.40260
1342797452363,3.40983
1342797512363,3.40607
1342797572363,3.36105
1342797632363,3.43216
1342797692363,3.40597
1342797752363,3.39002
1342797812363,3.39200
1342797872363,3.40499
1342797932363,3.39252
1342797992363,3.39892
1342798052363,3.42554
1342798112363,3.44593
1342798172363,3.41896
1342798232363,3.41083
1342798292363,3.42374
1342798352363,3.42101
1342798412363,3.43223
1342798472363,3.40063
1342798532363,3.40826
1342798592363,3.42308
1342798652363,3.42475
1342798712363,3.38829
1342798772363,3.40154
1342798832363,3.39228
1342798892363,3.41397
1342798952363,3.37734
1342799012363,3.37587
1342799072363,3.42246
1342799132363,3.39293
1342799192363,3.40753
1342799252363,3.38799
1342799312363,3.37716
1342799372363,3.40182
1342799432363,3.36766
1342799492363,3.39081
1342799552363,3.40930
1342799612363,3.39712
1342799672363,3.40514
1342799732363,3.42633
1342799792363,3.42653
1342799852363,3.38484
1342799912363,3.41630
1342799972363,3.39644
1342800032373,3.40398
1342800092373,3.41004
1342800152373,3.41085
1342800212373,3.38415
1342800272373,3.38139
1342800332373,3.39833
1342800392373,3.39012
1342800452373,3.40639
1342800512373,3.41278
1342800572373,3.41251
1342800632373,3.41388
1342800692373,3.40768
1342800752373,3.41028
1342800812373,3.38931
1342800872373,3.41593
1342800932373,3.41591
1342800992373,3.39543
1342801052373,3.38909
1342801112373,3.41147
1342801172373,3.38591
1342801232373,3.38059
1342801292373,3.40524
1342801352373,3.37428
1342801412373,3.42831
1342801472373,3.38536
1342801532373,3.38842
1342801592373,3.43071
1342801652373,3.38989
1342801712373,3.46520
1342801772373,3.42661
1342801832373,3.39300
1342801892373,3.40490
1342801952373,3.46589
1342802012373,3.39914
1342802072373,3.41083
1342802132373,3.38930
1342802192373,3.39674
1342802252373,3.39325
1342802312373,3.38255
1342802372373,3.40703
1342802432373,3.43340
1342802492373,3.38841
1342802552373,3.43040
1342802612373,3.39960
1342802672373,3.39139
1342802732373,3.40430
1342802792373,3.44040
1342802852373,3.40069
1342802912373,3.39934
1342802972373,3.43095
1342803032373,3.40858
1342803092373,3.39887
1342803152373,3.39690
1342803212373,3.41808
1342803272373,3.38362
1342803332373,3.41962
1342803392373,3.39126
1342803452373,3.41962
1342803512373,3.40674
1342803572373,3.41522
1342803632384,3.41178
1342803692384,3.42142
1342803752384,3.39977
1342803812384,3.42676
1342803872384,3.41460
1342803932384,3.43673
1342803992384,3.38317
1342804052384,3.36786
1342804112384,3.38686
1342804172384,3.40494
1342804232384,3.37850
1342804292384,3.41950
1342804352384,3.39289
1342804412384,3.39829
1342804472384,3.40456
1342804532384,3.42276
1342804592384,3.41955
1342804652384,3.41004
1342804712384,3.40902
1342804772384,3.38715
1342804832384,3.40852
1342804892384,3.40668
1342804952384,3.38232
1342805012384,3.42541
1342805072384,3.42393
1342805132384,3.42369
1342805192384,3.41283
1342805252384,3.40281
1342805312384,3.44269
1342805372384,3.43617
1342805432384,3.35962
1342805492384,3.44253
1342805552384,3.41351
1342805612384,3.39536
1342805672384,3.42850
1342805732384,3.41511
1342805792384,3.38908
1342805852384,3.39941
1342805912384,3.43303
1342805972384,3.42228
1342806032384,3.42668
1342806092384,3.41675
1342806152384,3.41121
1342806212384,3.41823
1342806272384,3.39773
1342806332384,3.44603
1342806392384,3.43658
1342806452384,3.42425
1342806512384,3.45224
1342806572384,3.41431
1342806632384,3.44333
1342806692384,3.42446
1342806752384,3.40085
1342806812384,3.45462
1342806872384,3.40317
1342806932384,3.45221
1342806992384,3.43306
1342807052384,3.41812
1342807112384,3.48333
1342807172384,3.41796
1342807232394,3.39654
1342807292394,3.42119
1342807352394,3.45439
1342807412394,3.41497
1342807472394,3.43828
1342807532394,3.43810
1342807592394,3.40629
1342807652394,3.42375
1342807712394,3.39992
1342807772394,3.41135